Погода в Тевризе

Погода в Тевризе : погода сейчас, прогноз погоды и архив. Всё, что Вы хотите узнать о погоде в Тевризе!

Хотите узнать прогноз погоды в Тевризе? Тогда Вам сюда: Погода в Тевризе

Поиск расширенной информации на нашем сайте:

Другие новости

Новости СМИ2

Главная страница сайта

Новости сайта

03.07.2017

Напоминаем, что на нашем специализированном сайте Метеоцентр.Азия вы можете получить высокодетализированные автоматические прогнозы погоды по пунктам России, СНГ и мира в авиационном формате (включающие направление и скорость ветра, видимость, явления погоды, количество и форму облачности, нижнюю и верхнюю границу облачности).


Погода в Тевризе - сегодня

Время (UTC), дата Ветер
(°,м/с) 
Видим.   Явления Облачность Т
(°С)
Тd
(°С)
f(%) Тe
(°С)
Pmin
(гПа)
dP
(гПа)
Po
(мм)
O2
(г/м3)
Тmin Tmax R s Состояние
почвы
21 10.10.18 180 (Ю) 10 км    ясно 
+1.4 -0.9 85 -1  1014.8  -2.8  755  303           
03 11.10.18 190 (Ю) 6{11}  20000 м  {ливн. осадки}  10/3 300 м средняя 
[Frnb|As op]
+4.8 +1.8 81 +2  1005.8  -3.9  748  296  +1.1    0.0    влажная 
15 11.10.18 220 (ЮЗ) 5{16}  4000 м  слаб. ливневой дождь  10/6 600 м кучево-дожд., средняя 
[Cb cap|As op]
+7.1 +6.6 97 +5  997  0.1  742  290    +12.3     
03 12.10.18 220 (ЮЗ) 9000 м  слаб. ливневой дождь  10/10 500 м кучево-дожд. 
[Cb cap]
+4.5 +3.9 96 +3  994.3  -0.2  740  293  +4.3      влажная 
15 12.10.18 300 (СЗ) 4000 м  слаб. ливневой дождь  10/3 300 м кучево-дожд., средняя 
[Cb cap|As op]
+1.5 +1.5 100 1002  1.3  745  298    +4.7  0.3     
21 12.10.18 320 (СЗ) 4000 м  слаб. снег{ливн. осадки}  10/0 средняя 
[As op]
-0.5 -0.8 98 -1  1002.1  746  301           
03 13.10.18 260 (З) 20000 м    3/0 средняя 
[Ac lent]
-3 -3 100 -3  1002.9  0.3  746  304  -4.1    0.1    замёрзшая 
09 13.10.18 220 (ЮЗ) 20000 м    9/6 600 м кучево-дожд., средняя 
[Cb cap|Ac trans]
+3 -4.5 58 +2  1002.7  -0.3  746  298           
15 13.10.18 240 (ЮЗ) 10 км    10/0 средняя 
[As op]
-0.5 -1.9 90 -1  1004.3  0.5  747  302    +3.6  0.3     
03 14.10.18 220 (ЮЗ) 9000 м  слаб. снег  10/10 360 м 
[Frnb|Ns]
+0 +0 100 -2  1007.7  1.2  750  302  -0.5    равномерный
мокрый или
старый снег
100% 
09 14.10.18 190 (Ю) 20000 м    9/8 600 м кучево-дожд., средняя 
[Cb cap|Ac cast]
+3 -0.8 76 +2  1010.9  1.5  752  300           
15 14.10.18 170 (Ю) 4000 м  слаб. ливневой снег  9/9 360 м кучево-дожд. 
[Cb cap]
+0.1 +0.1 100 -1  1014  1.3  754  304    +3.3  0.7     
21 14.10.18 090 (В) 10 км    ясно 
-2.3 -2.3 100 -2  1016.4  1.2  756  308           
03 15.10.18 130 (ЮВ) 7000 м  слаб. снег  10/0 средняя 
[As op]
-1.4 -1.4 100 -3  1018.9  1.4  758  307  -2.7    0.3  равномерный
сухой снег
100% 
15 15.10.18 070 (В) 10 км    3/0 средняя 
[Ac lent]
-0.6 -0.6 100 -1  1022.2  0.9  760  307    +0.8  0.0     
21 15.10.18 070 (В) 10 км    3/0 верхняя 
[Ci sp]
-3.3 -3.3 100 -3  1022.5  -0.2  761  311           
03 16.10.18 020 (С) 0200 м  туман  ?/?  
-3 -3 100 -3  1023.6  0.7  761  311  -4    0.0     
15 16.10.18 230 (ЮЗ) 4000 м  дымка{туман}  10/10 330 м 
[St]
-0.9 -0.9 100 -2  1021.2  -0.5  760  307    +0.2       
03 17.10.18 190 (Ю) 20000 м    10/0 верхняя 
[Cs]
-1.8 -2.7 94 -5  1012.8  -2  753  306  -2.6         
15 17.10.18 180 (Ю) 5{11}  4000 м  слаб. снег  10/10 400 м 
[Ns]
+0.3 +0.3 100 -3  1000.5  -3.3  744  299    +1.6     
03 18.10.18 120 (ЮВ) 1500 м  ливневой снег  10/10 270 м кучево-дожд. 
[Cb cap]
+0.2 +0.2 100 -2  995.3  740  298  +0.2    равномерный
мокрый или
старый снег
100% 
15 18.10.18 060 (СВ) 4000 м  слаб. ливневой снег  10/10 240 м кучево-дожд. 
[Cb cap]
+0.6 +0.6 100 -1  1001.1  1.8  745  299    +0.8     
03 19.10.18 140 (ЮВ) 0500 м  туман{морось}  ?/?  
+1 +1 100 1006.6  749  300  +0.6    0.8  равномерный
мокрый или
старый снег
100% 
09 19.10.18 120 (ЮВ) 20000 м    10/10 1080 м кучево-дожд. 
[Cb cap]
+2.6 +0.3 85 +2  1008.6  0.7  750  299           
15 19.10.18 150 (ЮВ) 10 км    10/10 1110 м 
[Sc]
+0.9 +0.1 94 1011.3  1.2  752  302    +3.4       
Время (UTC), дата Ветер
(°,м/с) 
Видим.   Явления Облачность Т
(°С)
Тd
(°С)
f(%) Тe
(°С)
Pmin
(гПа)
dP
(гПа)
Po
(мм)
O2
(г/м3)
Тmin Tmax R s Состояние
почвы

Для получения пояснительной информации подведите курсор к названию столбца.

ПОГОДА в Тевризе - архив

Всё, что Вы хотите узнать о погоде в Тевризе - удобно и подробно!

Выберите нужную дату (начиная с 1 января 2015* года) и нажмите кнопку "Найти".
Будут отображены архивные сводки погоды по пункту Тевриз, начиная с указанной даты.


Отображать данные в формате CSV (для использования в таблицах Excel)


Внимание! Наш архив погоды предназначен исключительно для личного некоммерческого использования в познавательных целях. Если Вам необходимы официальные справки о состоянии погоды (для производственных, юридических, коммерческих и т.п. целей), обращайтесь в органы Росгидромета.

*Примечание: данная дата относится к архиву по метеостанциям СССР (Россия, СНГ, Балтия).
Архив по метеостанциям Зарубежной Европы и Азии (кроме Китая) хранится 10 дней, по другим регионам земного шара (Китай, Африка, Америка, Австралия, Океания) - 1 день.

Тевриз - район местоположения метеостанции


Название, широта, долгота, высота метеостанции:
Тевриз 57.5°ш. 72.4°д. 67 м над ур. моря [Российская Федерация]

Дополнительная информация

В oтличие oт бoльшинства пoгoдных сайтoв мы публикуем пoдрoбную метеoинфoрмацию в детальнoм прoфессиoнальнoм фoрмате.

Характеристики температуры и влажнoсти вoздуха измеряются на высoте 2 м в тени вдали oт зданий и деревьев.
Скoрoсть ветра измеряется на высoте 10 м (на урoвне рoста челoвека скoрoсть ветра ниже в 1.5-2 раза). Если метеoстанция нахoдится в гoрoде или в лесу, тo скoрoсть ветра занижена на 2-4 м/с пo сравнению с oткрытым местoм. Скoрoсть ветра над акватoриями крупных рек и oзёр, а также на вершинах хoлмoв на 2-5 м/с выше, чем в oбычных услoвиях.
Атмoсфернoе давление в разных тoчках местнoсти мoжет значительнo oтличаться oт давления на метеoстанции, в зависимoсти oт услoвий рельефа (при пoдъёме на 10 м давление пoнижается примернo на 1 мм рт.ст.).